Location: Marcé
(47.5801°N, 0.3280°W)
Time: 08:32:47
(UTC+01:00)

Vanguard 1 - Pass Details

Date: 30 November 2021
Orbit: 652 x 3830 km, 34.2° (Epoch: 24 January)

Event Time Altitude Azimuth Distance (km) Brightness Sun altitude
Rises 02:26:58 0° 237° (WSW) 7,768 - -57.6°
Reaches altitude 10° 02:32:21 10° 233° (SW) 6,880 - -56.9°
Maximum altitude 02:54:07 50° 167° (SSE) 4,112 - -54.1°
Exits shadow 02:58:05 46° 141° (SE) 4,051 12.9 -53.5°
Drops below altitude 10° 03:10:20 10° 99° (E) 5,292 14.1 -51.8°
Sets 03:13:48 0° 94° (E) 5,944 14.5 -51.2°
